Summerville, SC

8:48 AM EDT on May 25, 2017 (GMT -0400)
Summerville

Weather History for KDYB - December, 2012

Change the Weather History Date:

Thursday, December 6, 2012

  Actual Average (KCHS) Record (KCHS)
Temperature  
Mean Temperature 58 °F -  
Max Temperature 64 °F 63 °F 82 °F (2013)
Min Temperature 51 °F 38 °F 27 °F (2000)
Degree Days  
Heating Degree Days 8    
Growing Degree Days 8 (Base 50)    
Moisture  
Dew Point 49 °F    
Average Humidity 70    
Maximum Humidity 94    
Minimum Humidity 63    
Precipitation  
Precipitation 0.00 in - - ()
Sea Level Pressure  
Sea Level Pressure 30.16 in    
Wind  
Wind Speed 6 mph (NNE)    
Max Wind Speed 10 mph    
Max Gust Speed 18 mph    
Visibility 10 miles    
Events      
Averages and records for this station are not official NWS values.
T = Trace of Precipitation, MM = Missing Value Source: NWS Daily Summary

Daily Weather History Graph

Daily Weather History Graph

Search for Another Location

Airport or City:

Trip Planner

Search our weather history database for the weather conditions in past years. The results will help you decide how hot, cold, wet, or windy it might be!

Date:

Astronomy

Dec. 06, 2012 Rise Set
Actual Time 7:10 AM EST 5:14 PM EST
Civil Twilight 6:43 AM EST 5:41 PM EST
Nautical Twilight 6:12 AM EST 6:11 PM EST
Astronomical Twilight 5:42 AM EST 6:42 PM EST
Moon No Moon Rise 12:20 PM EST (12/6)
Length of Visible Light 10h 57m
Length of Day
10h 03m
Waning Gibbous, 49% of the Moon is Illuminated
Dec 6
Waning Gibbous
Dec 13
New
Dec 20
First Quarter
Dec 28
Full
Jan 4
Last Quarter

Hourly Weather History & Observations

Time (EST) Temp. Dew Point Humidity Pressure Visibility Wind Dir Wind Speed Gust Speed Precip Events Conditions
8:35 AM 55.4 °F 53.6 °F 94% 30.19 in 10.0 mi NE 4.6 mph - N/A   Clear
9:15 AM 59.0 °F 51.8 °F 77% 30.19 in 10.0 mi NE 5.8 mph - N/A   Mostly Cloudy
9:35 AM 59.0 °F 53.6 °F 82% 30.20 in 10.0 mi NNE 4.6 mph - N/A   Mostly Cloudy
9:55 AM 59.0 °F 50.0 °F 72% 30.20 in 10.0 mi NNE 9.2 mph - N/A   Scattered Clouds
10:15 AM 59.0 °F 50.0 °F 72% 30.20 in 10.0 mi NNE 5.8 mph - N/A   Clear
10:35 AM 60.8 °F 50.0 °F 68% 30.20 in 10.0 mi NNE 8.1 mph - N/A   Scattered Clouds
10:55 AM 60.8 °F 50.0 °F 68% 30.20 in 10.0 mi NNE 5.8 mph - N/A   Scattered Clouds
11:15 AM 60.8 °F 50.0 °F 68% 30.19 in 10.0 mi NE 4.6 mph - N/A   Scattered Clouds
11:55 AM 62.6 °F 50.0 °F 63% 30.18 in 10.0 mi NNE 8.1 mph - N/A   Clear
12:15 PM 62.6 °F 50.0 °F 63% 30.17 in 10.0 mi NNE 6.9 mph - N/A   Scattered Clouds
12:35 PM 62.6 °F 50.0 °F 63% 30.16 in 10.0 mi North 10.4 mph - N/A   Mostly Cloudy
12:55 PM 62.6 °F 50.0 °F 63% 30.15 in 10.0 mi North 8.1 mph - N/A   Overcast
1:15 PM 62.6 °F 50.0 °F 63% 30.15 in 10.0 mi North 9.2 mph - N/A   Overcast
1:35 PM 62.6 °F 50.0 °F 63% 30.14 in 10.0 mi North 4.6 mph - N/A   Overcast
1:55 PM 64.4 °F 51.8 °F 64% 30.13 in 10.0 mi NNE 9.2 mph - N/A   Overcast
2:15 PM 64.4 °F 51.8 °F 64% 30.13 in 10.0 mi NE 4.6 mph - N/A   Overcast
2:35 PM 62.6 °F 51.8 °F 68% 30.13 in 10.0 mi NNE 5.8 mph - N/A   Mostly Cloudy
2:55 PM 64.4 °F 51.8 °F 64% 30.13 in 10.0 mi North 4.6 mph - N/A   Overcast
3:15 PM 64.4 °F 51.8 °F 64% 30.13 in 10.0 mi NE 5.8 mph - N/A   Overcast
3:35 PM 64.4 °F 51.8 °F 64% 30.13 in 10.0 mi NNE 6.9 mph - N/A   Overcast
3:55 PM 64.4 °F 51.8 °F 64% 30.14 in 10.0 mi NE 4.6 mph - N/A   Overcast
4:15 PM 64.4 °F 51.8 °F 64% 30.13 in 10.0 mi NNE 3.5 mph - N/A   Overcast
4:35 PM 62.6 °F 51.8 °F 68% 30.13 in 10.0 mi Calm Calm - N/A   Overcast
4:55 PM 62.6 °F 53.6 °F 72% 30.13 in 10.0 mi NNE 4.6 mph - N/A   Overcast
5:15 PM 60.8 °F 50.0 °F 68% 30.14 in 10.0 mi NNE 6.9 mph - N/A   Overcast
5:55 PM 59.0 °F 50.0 °F 72% 30.15 in 10.0 mi NNE 6.9 mph - N/A   Scattered Clouds
6:15 PM 59.0 °F 50.0 °F 72% 30.15 in 10.0 mi NE 3.5 mph - N/A   Scattered Clouds
7:35 PM 55.4 °F 48.2 °F 77% 30.17 in 10.0 mi NE 8.1 mph - N/A   Overcast
7:55 PM 55.4 °F 48.2 °F 77% 30.17 in 10.0 mi NNE 6.9 mph 16.1 mph N/A   Overcast
8:15 PM 55.4 °F 48.2 °F 77% 30.17 in 10.0 mi NNE 6.9 mph - N/A   Overcast
8:55 PM 53.6 °F 46.4 °F 77% 30.17 in 10.0 mi NE 6.9 mph 18.4 mph N/A   Overcast
9:15 PM 53.6 °F 44.6 °F 72% 30.17 in 10.0 mi NNE 9.2 mph - N/A   Overcast
9:35 PM 53.6 °F 44.6 °F 72% 30.16 in 10.0 mi NE 6.9 mph - N/A   Overcast
9:55 PM 53.6 °F 44.6 °F 72% 30.16 in 10.0 mi NNE 4.6 mph - N/A   Overcast
10:15 PM 51.8 °F 44.6 °F 76% 30.16 in 10.0 mi NNE 5.8 mph - N/A   Overcast
10:35 PM 51.8 °F 42.8 °F 71% 30.16 in 10.0 mi NE 3.5 mph - N/A   Overcast
10:55 PM 51.8 °F 42.8 °F 71% 30.15 in 10.0 mi NE 5.8 mph - N/A   Overcast
11:15 PM 51.8 °F 42.8 °F 71% 30.15 in 10.0 mi NNE 4.6 mph - N/A   Overcast
11:35 PM 51.8 °F 42.8 °F 71% 30.14 in 10.0 mi NNE 6.9 mph - N/A   Overcast
11:55 PM 51.8 °F 42.8 °F 71% 30.14 in 10.0 mi NNE 4.6 mph - N/A   Overcast